CW0493 Weather Reports


time (UTC)temp
F
wind
direction
speed
knots
gust
knots
rain 1hr
in
rain 24hr
in
rain mn
in
humidity
%
barometer
mb
20260507051553 52 189 0.0 1.7 0.00 0.00 0.00 84 1019.5
20260507051058 52 179 0.0 1.7 0.00 0.00 0.00 83 1019.4
20260507050512 52 284 0.0 4.3 0.00 0.00 0.00 84 1019.5
20260507050014 53 293 0.0 8.7 0.00 0.00 0.00 83 1019.4
20260507045521 53 254 1.7 8.7 0.00 0.00 0.00 83 1019.4
20260507045028 53 267 0.9 7.0 0.00 0.00 0.00 84 1019.4
20260507044616 53 250 1.7 7.8 0.00 0.00 0.00 84 1019.3
20260507044502 53 293 2.6 7.8 0.00 0.00 0.00 84 1019.3
20260507044014 53 288 1.7 7.8 0.00 0.00 0.00 84 1019.3
20260507043520 53 267 2.6 7.8 0.00 0.00 0.00 84 1019.3
20260507043023 53 241 3.5 7.8 0.00 0.00 0.00 84 1019.3
20260507042522 53 223 2.6 7.8 0.00 0.00 0.00 83 1019.2
20260507042030 53 256 0.9 7.8 0.00 0.00 0.00 83 1019.2
20260507041502 53 286 2.6 7.8 0.00 0.00 0.00 83 1019.2
20260507041009 53 302 0.9 7.0 0.00 0.00 0.00 83 1019.1
20260507040520 53 308 1.7 9.6 0.00 0.00 0.00 83 1019.1
20260507040052 53 286 1.7 9.6 0.00 0.00 0.00 83 1019.0
20260507035554 54 290 1.7 8.7 0.00 0.00 0.00 82 1019.0
20260507035008 54 309 2.6 8.7 0.00 0.00 0.00 82 1018.9
20260507034600 54 290 2.6 8.7 0.00 0.00 0.00 82 1018.9
20260507034502 54 355 3.5 8.7 0.00 0.00 0.00 82 1018.9
20260507034008 54 302 1.7 7.8 0.00 0.00 0.00 82 1018.9
20260507033520 54 314 2.6 9.6 0.00 0.00 0.00 82 1018.8
20260507033046 54 268 2.6 9.6 0.00 0.00 0.00 81 1018.7
20260507032559 55 304 3.5 8.7 0.00 0.00 0.00 81 1018.7
20260507032010 55 302 2.6 8.7 0.00 0.00 0.00 80 1018.7
20260507031545 55 275 2.6 7.8 0.00 0.00 0.00 80 1018.6
20260507031044 56 309 3.5 8.7 0.00 0.00 0.00 79 1018.5
20260507030555 56 290 0.9 8.7 0.00 0.00 0.00 79 1018.5
20260507030042 56 344 0.9 9.6 0.00 0.00 0.00 79 1018.5
20260507025550 57 256 2.6 7.8 0.00 0.00 0.00 78 1018.5
20260507025059 57 306 2.6 7.0 0.00 0.00 0.00 77 1018.5
20260507025002 57 313 2.6 7.0 0.00 0.00 0.00 77 1018.5
20260507024530 58 285 1.7 7.0 0.00 0.00 0.00 76 1018.5
20260507024043 58 28 0.9 3.5 0.00 0.00 0.00 75 1018.4
20260507023544 59 279 0.9 4.3 0.00 0.00 0.00 75 1018.4
20260507023020 59 272 0.0 7.0 0.00 0.00 0.00 74 1018.4
20260507022533 60 47 0.9 7.0 0.00 0.00 0.00 74 1018.4
20260507022041 60 290 0.9 7.0 0.00 0.00 0.00 74 1018.4
20260507021512 60 326 0.9 5.2 0.00 0.00 0.00 73 1018.4
20260507021022 60 321 0.9 5.2 0.00 0.00 0.00 73 1018.5
20260507020526 61 261 1.7 7.0 0.00 0.00 0.00 72 1018.4
20260507020042 61 315 1.7 8.7 0.00 0.00 0.00 72 1018.5
20260507015532 61 292 0.9 8.7 0.00 0.00 0.00 71 1018.5
20260507015040 62 295 1.7 8.7 0.00 0.00 0.00 70 1018.5
20260507014508 62 355 2.6 8.7 0.00 0.00 0.00 69 1018.5
20260507014014 63 360 0.9 7.0 0.00 0.00 0.00 69 1018.6
20260507013525 63 337 1.7 7.0 0.00 0.00 0.00 68 1018.5
20260507013057 63 300 1.7 6.1 0.00 0.00 0.00 68 1018.5
20260507012513 63 253 0.9 6.1 0.00 0.00 0.00 68 1018.4
20260507012020 63 297 1.7 6.1 0.00 0.00 0.00 68 1018.4
20260507011518 64 5 2.6 6.1 0.00 0.00 0.00 67 1018.5
20260507011022 64 350 1.7 7.0 0.00 0.00 0.00 67 1018.4
20260507010530 64 236 0.9 7.0 0.00 0.00 0.00 68 1018.5
20260507010027 64 284 0.9 10.4 0.00 0.00 0.00 68 1018.5
20260507005537 64 317 2.6 10.4 0.00 0.00 0.00 67 1018.4
20260507005041 64 305 3.5 8.7 0.00 0.00 0.00 67 1018.4
20260507004512 65 250 0.9 7.8 0.00 0.00 0.00 66 1018.4
20260507004016 65 304 2.6 7.8 0.00 0.00 0.00 66 1018.3
20260507003529 65 311 1.7 7.0 0.00 0.00 0.00 66 1018.4
20260507003115 65 254 0.9 7.0 0.00 0.00 0.00 66 1018.4
20260507002504 65 301 1.7 9.6 0.00 0.00 0.00 66 1018.3
20260507002014 65 284 0.9 8.7 0.00 0.00 0.00 66 1018.3
20260507001527 65 304 0.9 9.6 0.00 0.00 0.00 67 1018.3
20260507001017 65 331 3.5 9.6 0.00 0.00 0.00 67 1018.3
20260507000526 65 245 3.5 8.7 0.00 0.00 0.00 65 1018.3
20260507000100 65 337 2.6 8.7 0.00 0.00 0.00 65 1018.3
20260506235512 65 248 1.7 8.7 0.00 0.00 0.00 66 1018.3
20260506235017 65 309 1.7 8.7 0.00 0.00 0.00 66 1018.3
20260506234513 65 51 1.7 7.8 0.00 0.00 0.00 66 1018.3
20260506234020 66 342 3.5 12.2 0.00 0.00 0.00 65 1018.2
20260506233530 66 225 2.6 12.2 0.00 0.00 0.00 65 1018.3
20260506233003 67 291 1.7 7.0 0.00 0.00 0.00 62 1018.3
20260506232514 67 311 1.7 7.0 0.00 0.00 0.00 63 1018.3
20260506232020 67 28 2.6 8.7 0.00 0.00 0.00 63 1018.3
20260506231520 67 350 1.7 8.7 0.00 0.00 0.00 65 1018.3
20260506231026 67 22 3.5 8.7 0.00 0.00 0.00 63 1018.4
20260506230535 68 5 0.9 7.0 0.00 0.00 0.00 62 1018.4
20260506230010 67 32 1.7 10.4 0.00 0.00 0.00 65 1018.4
20260506225516 66 60 4.3 10.4 0.00 0.00 0.00 66 1018.5
20260506225024 67 58 2.6 8.7 0.00 0.00 0.00 64 1018.5
20260506224559 67 67 3.5 9.6 0.00 0.00 0.00 65 1018.5
20260506224005 67 18 4.3 8.7 0.00 0.00 0.00 65 1018.5
20260506223514 67 77 3.5 7.0 0.00 0.00 0.00 64 1018.5
20260506223040 68 59 2.6 7.8 0.00 0.00 0.00 63 1018.6
20260506222548 68 355 1.7 7.8 0.00 0.00 0.00 64 1018.6
20260506222057 68 20 2.6 7.8 0.00 0.00 0.00 64 1018.7
20260506222003 68 15 2.6 7.8 0.00 0.00 0.00 65 1018.7
20260506221532 68 33 1.7 5.2 0.00 0.00 0.00 64 1018.7
20260506221032 67 71 1.7 7.0 0.00 0.00 0.00 64 1018.7
20260506220544 67 20 2.6 7.0 0.00 0.00 0.00 65 1018.7
20260506220019 67 269 0.9 4.3 0.00 0.00 0.00 65 1018.7
20260506215526 66 344 0.9 7.0 0.00 0.00 0.00 67 1018.8
20260506215036 66 98 3.5 9.6 0.00 0.00 0.00 65 1018.8
20260506214511 66 281 3.5 9.6 0.00 0.00 0.00 67 1018.8
20260506214016 66 348 2.6 9.6 0.00 0.00 0.00 66 1018.7
20260506213524 66 12 3.5 9.6 0.00 0.00 0.00 66 1018.8
20260506213048 66 5 3.5 8.7 0.00 0.00 0.00 67 1018.8
20260506212602 67 234 3.5 8.7 0.00 0.00 0.00 66 1018.9
20260506212502 66 346 3.5 8.7 0.00 0.00 0.00 66 1018.8
20260506212007 66 349 1.7 6.1 0.00 0.00 0.00 67 1018.8
20260506211536 66 24 2.6 6.1 0.00 0.00 0.00 67 1018.8
20260506211048 67 204 1.7 7.0 0.00 0.00 0.00 65 1018.8
20260506210553 66 11 1.7 7.0 0.00 0.00 0.00 69 1018.8
20260506205603 68 5 0.9 4.3 0.00 0.00 0.00 64 1018.9
20260506205006 66 182 0.9 2.6 0.00 0.00 0.00 67 1018.9
20260506204601 65 57 0.9 2.6 0.00 0.00 0.00 68 1018.9
20260506204007 65 236 0.9 2.6 0.00 0.00 0.00 69 1019.0
20260506203514 65 117 0.9 5.2 0.00 0.00 0.00 70 1019.0
20260506203012 64 76 1.7 5.2 0.00 0.00 0.00 70 1019.1
20260506202525 64 117 2.6 6.1 0.00 0.00 0.00 69 1019.0
20260506202029 64 90 2.6 6.1 0.00 0.00 0.00 69 1019.1
20260506201537 64 348 0.9 7.0 0.00 0.00 0.00 70 1019.1
20260506201047 64 38 2.6 7.8 0.00 0.00 0.00 69 1019.2
20260506200601 63 9 3.5 8.7 0.00 0.00 0.00 72 1019.2
20260506200026 64 49 3.5 7.0 0.00 0.00 0.00 71 1019.2
20260506195535 63 30 1.7 7.0 0.00 0.00 0.00 74 1019.2
20260506195040 63 13 2.6 7.0 0.00 0.00 0.00 74 1019.2
20260506194516 64 15 0.9 4.3 0.00 0.00 0.00 73 1019.2
20260506194021 63 161 0.9 4.3 0.00 0.00 0.00 72 1019.2
20260506193529 63 249 1.7 3.5 0.00 0.00 0.00 71 1019.2
20260506193103 63 150 0.0 3.5 0.00 0.00 0.00 71 1019.1
20260506192502 64 171 0.0 2.6 0.00 0.00 0.00 71 1019.1
20260506192006 64 58 0.9 2.6 0.00 0.00 0.00 71 1019.1
20260506191538 63 38 0.0 4.3 0.00 0.00 0.00 72 1019.2
20260506191049 63 26 1.7 7.8 0.00 0.00 0.00 72 1019.2
20260506190556 63 47 1.7 7.8 0.00 0.00 0.00 73 1019.1
20260506190031 63 46 0.9 3.5 0.00 0.00 0.00 73 1019.1
20260506185532 64 80 0.9 6.1 0.00 0.00 0.00 71 1019.2
20260506185044 62 61 1.7 4.3 0.00 0.00 0.00 75 1019.1
20260506184521 62 119 1.7 4.3 0.00 0.00 0.00 76 1019.2
20260506184028 63 355 1.7 3.5 0.00 0.00 0.00 74 1019.1
20260506183535 62 214 0.0 2.6 0.00 0.00 0.00 74 1019.1
20260506183008 63 196 0.9 4.3 0.00 0.00 0.00 73 1019.2
20260506182516 65 128 0.9 4.3 0.00 0.00 0.00 70 1019.2
20260506182022 64 171 0.9 3.5 0.00 0.00 0.00 71 1019.2
20260506181553 63 275 0.9 2.6 0.00 0.00 0.00 72 1019.3
20260506181054 64 170 0.0 2.6 0.00 0.00 0.00 72 1019.3
20260506180555 63 236 0.0 2.6 0.00 0.00 0.00 73 1019.3
20260506180504 63 257 0.0 2.6 0.00 0.00 0.00 74 1019.3
20260506180029 63 98 0.9 3.5 0.00 0.00 0.00 75 1019.2
20260506175538 62 90 0.9 3.5 0.00 0.00 0.00 75 1019.3
20260506175036 61 321 0.9 3.5 0.00 0.00 0.00 77 1019.2
20260506174504 60 288 0.9 3.5 0.00 0.00 0.00 77 1019.1
20260506174011 60 154 0.0 3.5 0.00 0.00 0.00 78 1019.0
20260506173517 60 49 0.0 5.2 0.00 0.00 0.00 79 1019.0
20260506173046 60 119 0.9 5.2 0.00 0.00 0.00 79 1018.9
20260506172550 59 72 1.7 2.6 0.00 0.00 0.00 79 1019.0
20260506172058 58 79 1.7 2.6 0.00 0.00 0.00 80 1019.0
20260506172006 58 53 1.7 2.6 0.00 0.00 0.00 79 1019.1
20260506171535 59 20 0.9 3.5 0.00 0.00 0.00 79 1019.3
20260506171043 59 305 0.9 3.5 0.00 0.00 0.00 80 1019.4
20260506170545 59 355 0.0 2.6 0.00 0.00 0.00 81 1019.4
20260506170015 58 209 0.0 2.6 0.00 0.00 0.00 80 1019.2
20260506165517 58 328 0.9 4.3 0.00 0.00 0.00 81 1019.2
20260506165023 58 264 0.9 4.3 0.00 0.00 0.00 83 1019.1
20260506164605 57 54 0.0 3.5 0.00 0.00 0.00 87 1019.0
20260506164053 56 38 0.0 2.6 0.00 0.00 0.00 88 1019.3
20260506163504 55 335 0.9 2.6 0.00 0.00 0.00 92 1019.5
20260506163109 54 39 0.9 2.6 0.00 0.00 0.00 94 1019.4
20260506163004 54 38 0.0 0.9 0.00 0.00 0.00 95 1019.5
20260506162510 54 9 0.0 1.7 0.00 0.00 0.00 95 1019.5
20260506162017 53 344 0.0 1.7 0.00 0.00 0.00 96 1019.3
20260506161547 53 33 0.0 0.9 0.00 0.00 0.00 96 1019.4
20260506161053 53 29 0.0 1.7 0.00 0.00 0.00 96 1019.3
20260506160503 53 14 0.0 1.7 0.00 0.00 0.00 96 1019.2
20260506160118 52 88 0.0 2.6 0.00 0.00 0.00 96 1019.1
20260506155506 53 75 0.0 2.6 0.00 0.00 0.00 96 1019.1
20260506155016 52 113 0.0 2.6 0.00 0.00 0.00 96 1019.0
20260506154547 52 88 0.0 2.6 0.00 0.00 0.00 96 1018.9
20260506154051 52 147 0.0 2.6 0.00 0.00 0.00 96 1018.7
20260506153505 52 155 0.0 2.6 0.00 0.00 0.00 96 1018.9
20260506153055 52 115 0.0 2.6 0.00 0.00 0.00 96 1019.1
20260506152500 52 68 0.9 2.6 0.00 0.00 0.00 95 1019.2
20260506152011 52 94 0.0 1.7 0.00 0.00 0.00 95 1019.2
20260506151541 52 77 0.0 1.7 0.00 0.00 0.00 95 1019.4
20260506151053 52 27 0.0 0.9 0.00 0.00 0.00 95 1019.3
20260506150556 52 42 0.0 2.6 0.00 0.00 0.00 95 1019.4
20260506150503 52 52 0.0 2.6 0.00 0.00 0.00 95 1019.3
20260506150033 52 62 0.9 2.6 0.00 0.00 0.00 95 1019.3
20260506145543 52 34 0.0 1.7 0.00 0.00 0.00 95 1019.3
20260506145046 52 349 0.0 1.7 0.00 0.00 0.00 95 1019.4
20260506144525 52 328 0.0 0.9 0.00 0.00 0.00 95 1019.4
20260506144032 52 265 0.0 0.9 0.00 0.00 0.00 95 1019.4
20260506143533 52 228 0.0 0.0 0.00 0.00 0.00 95 1019.3
20260506143006 52 228 0.0 1.7 0.00 0.00 0.00 95 1019.2
20260506142515 52 227 0.0 1.7 0.00 0.00 0.00 95 1018.9
20260506142018 52 146 0.0 0.0 0.00 0.00 0.00 95 1018.8
20260506141524 52 146 0.0 0.0 0.00 0.00 0.00 95 1018.7
20260506141028 52 146 0.0 0.9 0.00 0.00 0.00 95 1018.7
20260506140532 52 146 0.0 1.7 0.00 0.00 0.00 94 1018.4
20260506140101 52 146 0.0 1.7 0.00 0.00 0.00 95 1018.3
20260506135506 52 186 0.0 0.0 0.00 0.00 0.00 95 1018.4
20260506135018 52 186 0.0 0.0 0.00 0.00 0.00 95 1018.3
20260506134553 52 186 0.0 0.0 0.00 0.00 0.00 94 1018.3
20260506134101 52 186 0.0 0.0 0.00 0.00 0.00 95 1018.2
20260506133511 52 186 0.0 0.0 0.00 0.00 0.00 95 1018.3
20260506133056 52 186 0.0 0.0 0.00 0.00 0.00 95 1018.2
20260506132546 52 186 0.0 0.0 0.00 0.00 0.00 94 1018.3
20260506132100 52 186 0.0 0.0 0.00 0.00 0.00 94 1018.3
20260506131553 52 186 0.0 0.9 0.00 0.00 0.00 94 1018.3
20260506131055 52 186 0.0 1.7 0.00 0.00 0.00 94 1018.3
20260506130555 52 246 0.0 1.7 0.00 0.00 0.00 94 1018.2
20260506130508 52 243 0.0 1.7 0.00 0.00 0.00 94 1018.1
20260506130027 52 214 0.0 0.0 0.00 0.00 0.00 94 1018.1
20260506125537 52 214 0.0 0.0 0.00 0.00 0.00 94 1018.0
20260506125042 52 214 0.0 0.0 0.00 0.00 0.00 94 1017.9
20260506124514 52 214 0.0 0.0 0.00 0.00 0.00 94 1017.9
20260506124030 52 214 0.0 0.0 0.00 0.00 0.00 94 1017.9
20260506123537 52 214 0.0 0.0 0.00 0.00 0.00 94 1017.9
20260506123013 52 227 0.0 0.0 0.00 0.00 0.00 94 1017.9
20260506122518 52 227 0.0 0.0 0.00 0.00 0.00 94 1018.0
20260506122028 52 227 0.0 0.0 0.00 0.00 0.00 94 1018.1
20260506121557 52 227 0.0 0.0 0.00 0.00 0.00 94 1018.1
20260506121008 52 227 0.0 0.0 0.00 0.00 0.00 94 1018.1
20260506120517 52 227 0.0 0.0 0.00 0.00 0.00 94 1017.9
20260506120056 52 227 0.0 0.0 0.00 0.00 0.00 94 1017.9
20260506115553 52 227 0.0 0.0 0.00 0.00 0.00 94 1017.8
20260506115001 52 320 0.0 0.0 0.00 0.00 0.00 94 1017.8
20260506114533 52 320 0.0 0.0 0.00 0.00 0.00 94 1017.8
20260506114046 52 320 0.0 0.0 0.00 0.00 0.00 94 1017.7
20260506113551 52 320 0.0 0.0 0.00 0.00 0.00 94 1017.7
20260506113023 52 320 0.0 0.0 0.00 0.00 0.00 94 1017.6
20260506112530 52 320 0.0 0.0 0.00 0.00 0.00 94 1017.5
20260506112037 52 320 0.0 0.0 0.00 0.00 0.00 94 1017.4
20260506111511 52 320 0.0 0.0 0.00 0.00 0.00 94 1017.3
20260506111016 52 320 0.0 0.0 0.00 0.00 0.00 94 1017.4
20260506110523 52 320 0.0 0.0 0.00 0.00 0.00 94 1017.4
20260506110101 52 320 0.0 0.0 0.00 0.00 0.00 94 1017.3
20260506105553 52 319 0.0 0.0 0.00 0.00 0.00 94 1017.1
20260506105002 52 348 0.0 0.0 0.00 0.00 0.00 94 1017.1
20260506104614 52 22 0.0 0.0 0.00 0.00 0.00 94 1017.0
20260506104004 51 28 0.0 0.0 0.00 0.00 0.00 94 1016.9
20260506103509 51 28 0.0 0.0 0.00 0.00 0.00 94 1016.9
20260506103043 51 28 0.0 0.0 0.00 0.00 0.00 94 1016.8
20260506102549 51 28 0.0 0.0 0.00 0.00 0.00 94 1016.8
20260506102047 51 28 0.0 0.0 0.00 0.00 0.00 94 1016.7
20260506101519 51 28 0.0 0.0 0.00 0.00 0.00 94 1016.7
20260506101027 51 28 0.0 0.0 0.00 0.00 0.00 93 1016.6
20260506100530 51 28 0.0 0.0 0.00 0.00 0.00 93 1016.6
20260506100022 51 28 0.0 0.0 0.00 0.00 0.00 93 1016.6
20260506095531 51 28 0.0 0.0 0.00 0.00 0.00 93 1016.6
20260506095034 51 28 0.0 0.0 0.00 0.00 0.00 93 1016.5
20260506094603 51 28 0.0 0.0 0.00 0.00 0.00 93 1016.4
20260506094004 51 28 0.0 0.0 0.00 0.00 0.00 93 1016.4
20260506093513 51 28 0.0 0.0 0.00 0.00 0.00 93 1016.4
20260506093036 51 28 0.0 0.0 0.00 0.00 0.00 93 1016.3
20260506092543 52 28 0.0 0.0 0.00 0.00 0.00 93 1016.2
20260506092045 52 28 0.0 0.0 0.00 0.00 0.00 93 1016.2
20260506091518 52 28 0.0 0.0 0.00 0.00 0.00 93 1016.2
20260506091031 52 28 0.0 0.0 0.00 0.00 0.00 93 1016.2
20260506090531 52 28 0.0 0.0 0.00 0.00 0.00 93 1016.2
20260506090006 52 28 0.0 0.0 0.00 0.00 0.00 93 1016.2
20260506085512 52 28 0.0 0.0 0.00 0.00 0.00 93 1016.3
20260506085021 52 61 0.0 0.0 0.00 0.00 0.00 92 1016.2
20260506084629 52 67 0.0 0.0 0.00 0.00 0.00 92 1016.1
20260506084003 52 82 0.0 0.0 0.00 0.00 0.00 92 1016.1
20260506083513 52 102 0.0 0.0 0.00 0.00 0.00 92 1016.1
20260506083040 52 102 0.0 0.0 0.00 0.00 0.00 91 1016.1
20260506082544 52 102 0.0 0.0 0.00 0.00 0.00 91 1016.1
20260506082046 53 102 0.0 0.0 0.00 0.00 0.00 91 1016.0
20260506081518 53 101 0.0 0.0 0.00 0.00 0.00 91 1016.0
20260506081027 53 102 0.0 0.0 0.00 0.00 0.00 91 1016.0
20260506080533 53 102 0.0 0.0 0.00 0.00 0.00 90 1016.1
20260506073027 54 102 0.0 0.0 0.00 0.00 0.00 88 1016.0
20260506072530 54 102 0.0 0.0 0.00 0.00 0.00 88 1016.0
20260506072042 55 101 0.0 0.0 0.00 0.00 0.00 88 1015.9
20260506071511 55 102 0.0 0.0 0.00 0.00 0.00 88 1015.9
20260506071012 55 81 0.0 0.0 0.00 0.00 0.00 87 1015.8
20260506070520 55 81 0.0 0.0 0.00 0.00 0.00 87 1015.8
20260506062045 56 63 0.0 0.0 0.00 0.00 0.00 84 1015.6
20260506061513 57 63 0.0 1.7 0.00 0.00 0.00 83 1015.5
20260506061025 57 63 0.0 1.7 0.00 0.00 0.00 83 1015.5
20260506060531 57 60 0.0 0.0 0.00 0.00 0.00 83 1015.5